This is the latest recevied weather packets stored in our database for station/object N1UNH. If no packets are shown the sender has not sent any weather packets the latest 10 day(s).
| Time | Temp. | Humidity | Pressure | Rain* | Wind** | Luminosity | Snow |
|---|---|---|---|---|---|---|---|
| 1778108908 | 15° C | 95% | 1010 hPa | 0 mm | - | 11 W/m² | - |
| 1778108605 | 15° C | 95% | 1010.2 hPa | 0 mm | - | 10 W/m² | - |
| 1778108301 | 15° C | 95% | 1009.9 hPa | 0 mm | - | 11 W/m² | - |
| 1778107998 | 15° C | 95% | 1010.1 hPa | 0 mm | - | 15 W/m² | - |
| 1778107695 | 15° C | 95% | 1009.9 hPa | 0 mm | - | 17 W/m² | - |
| 1778107392 | 15° C | 95% | 1010 hPa | 0 mm | - | 10 W/m² | - |
| 1778107088 | 15° C | 95% | 1010.1 hPa | 0 mm | - | 9 W/m² | - |
| 1778106783 | 15.56° C | 95% | 1010 hPa | 0 mm | - | 9 W/m² | - |
| 1778106481 | 15.56° C | 94% | 1009.9 hPa | 0 mm | - | 14 W/m² | - |
| 1778106176 | 15.56° C | 94% | 1010 hPa | 0 mm | - | 13 W/m² | - |
| 1778105875 | 15.56° C | 95% | 1010.1 hPa | 0 mm | - | 10 W/m² | - |
| 1778105573 | 15.56° C | 95% | 1010.1 hPa | 0 mm | - | 7 W/m² | - |
| 1778105270 | 15.56° C | 95% | 1010.1 hPa | 0 mm | - | 19 W/m² | - |
| 1778104970 | 15.56° C | 95% | 1010.2 hPa | 0 mm | - | 25 W/m² | - |
| 1778104667 | 15.56° C | 95% | 1010.3 hPa | 0 mm | - | 29 W/m² | - |
| 1778104363 | 15.56° C | 95% | 1010.2 hPa | 0 mm | - | 19 W/m² | - |
| 1778104059 | 15.56° C | 95% | 1010.1 hPa | 0 mm | - | 37 W/m² | - |
| 1778103757 | 15.56° C | 95% | 1010.2 hPa | 0 mm | - | 27 W/m² | - |
| 1778103455 | 15.56° C | 95% | 1009.9 hPa | 0 mm | - | 51 W/m² | - |
| 1778103151 | 15.56° C | 95% | 1010.3 hPa | 0 mm | - | 43 W/m² | - |
| 1778102849 | 16.11° C | 95% | 1010.2 hPa | 0 mm | - | 66 W/m² | - |
| 1778102544 | 16.11° C | 95% | 1010.4 hPa | 0 mm | - | 53 W/m² | - |
| 1778102240 | 16.11° C | 95% | 1010.4 hPa | 0 mm | - | 53 W/m² | - |
| 1778101936 | 16.11° C | 95% | 1010.3 hPa | 0 mm | - | 48 W/m² | - |
| 1778101633 | 16.11° C | 95% | 1010.4 hPa | 0 mm | - | 54 W/m² | - |
* Rain latest hour (hover to see other rain measurements)
** Current wind speed in m/s (hover to see current wind gust speed)